Drummond Island, MI

6:01 PM EDT on August 21, 2017 (GMT -0400)
Drummond Island

Weather History for KDRM - May, 2013

Change the Weather History Date:

Wednesday, May 29, 2013

  Actual Average (KCIU) Record (KCIU)
Temperature  
Mean Temperature 56 °F -  
Max Temperature 65 °F 67 °F 104 °F (2001)
Min Temperature 48 °F 42 °F 25 °F (1983)
Degree Days  
Heating Degree Days 8    
Growing Degree Days 6 (Base 50)    
Moisture  
Dew Point 53 °F    
Average Humidity 93    
Maximum Humidity 100    
Minimum Humidity 73    
Precipitation  
Precipitation 0.00 in - - ()
Sea Level Pressure  
Sea Level Pressure 29.85 in    
Wind  
Wind Speed 3 mph (SW)    
Max Wind Speed 13 mph    
Max Gust Speed 20 mph    
Visibility 7 miles    
Events Fog    
Averages and records for this station are not official NWS values.
T = Trace of Precipitation, MM = Missing Value Source: NWS Daily Summary

Daily Weather History Graph

Daily Weather History Graph

Search for Another Location

Airport or City:

Trip Planner

Search our weather history database for the weather conditions in past years. The results will help you decide how hot, cold, wet, or windy it might be!

Date:

Astronomy

May. 29, 2013 Rise Set
Actual Time 5:49 AM EDT 9:15 PM EDT
Civil Twilight 5:12 AM EDT 9:53 PM EDT
Nautical Twilight 4:23 AM EDT 10:42 PM EDT
Astronomical Twilight 3:20 AM EDT 11:45 PM EDT
Moon 12:30 AM EDT (5/29) 10:56 AM EDT (5/29)
Length of Visible Light 16h 40m
Length of Day
15h 26m
Waning Gibbous, 73% of the Moon is Illuminated
May 29
Waning Gibbous
May 31
Last Quarter
Jun 8
New
Jun 16
First Quarter
Jun 23
Full

Hourly Weather History & Observations

Time (EDT) Temp. Dew Point Humidity Pressure Visibility Wind Dir Wind Speed Gust Speed Precip Events Conditions
12:16 AM 50.5 °F 50.5 °F 100% 29.78 in 4.0 mi SE 4.6 mph - N/A   Overcast
12:36 AM 50.2 °F 50.2 °F 100% 29.78 in 4.0 mi SSE 4.6 mph - N/A   Overcast
12:55 AM 50.0 °F 50.0 °F 100% 29.76 in 5.0 mi SE 3.5 mph - N/A   Overcast
1:16 AM 49.6 °F 49.6 °F 100% 29.76 in 4.0 mi SSE 3.5 mph - N/A   Overcast
1:36 AM 49.3 °F 49.3 °F 100% 29.76 in 1.8 mi SE 3.5 mph - N/A   Overcast
1:56 AM 49.5 °F 49.5 °F 100% 29.76 in 1.8 mi Calm Calm - N/A   Overcast
2:16 AM 49.6 °F 49.6 °F 100% 29.76 in 1.8 mi Calm Calm - N/A   Overcast
2:35 AM 49.6 °F 49.6 °F 100% 29.76 in 1.5 mi Calm Calm - N/A   Overcast
2:56 AM 49.6 °F 49.6 °F 100% 29.76 in 1.2 mi Calm Calm - N/A   Overcast
3:16 AM 50.0 °F 50.0 °F 100% 29.75 in 1.5 mi Calm Calm - N/A   Overcast
3:35 AM 50.0 °F 50.0 °F 100% 29.76 in 1.2 mi Calm Calm - N/A   Overcast
3:56 AM 49.8 °F 49.8 °F 100% 29.74 in 1.0 mi Calm Calm - N/A   Overcast
4:16 AM 50.2 °F 50.2 °F 100% 29.74 in 1.5 mi Calm Calm - N/A   Overcast
4:35 AM 50.4 °F 50.4 °F 100% 29.74 in 1.0 mi Calm Calm - N/A   Overcast
4:56 AM 50.5 °F 50.5 °F 100% 29.75 in 0.5 mi Calm Calm - N/A Fog Fog
5:16 AM 50.2 °F 50.2 °F 100% 29.77 in 0.5 mi Calm Calm - N/A Fog Fog
5:36 AM 49.6 °F 49.6 °F 100% 29.76 in 0.5 mi Calm Calm - N/A Fog Fog
5:56 AM 49.5 °F 49.5 °F 100% 29.76 in 0.2 mi SSW 4.6 mph - N/A Fog Fog
6:16 AM 49.3 °F 49.3 °F 100% 29.77 in 0.2 mi Calm Calm - N/A Fog Fog
6:36 AM 49.3 °F 49.3 °F 100% 29.78 in 0.2 mi Calm Calm - N/A Fog Fog
6:56 AM 48.9 °F 48.9 °F 100% 29.78 in 0.2 mi Calm Calm - N/A Fog Fog
7:16 AM 49.5 °F 49.5 °F 100% 29.80 in 0.5 mi Calm Calm - N/A Fog Fog
7:36 AM 49.5 °F 49.5 °F 100% 29.80 in 0.8 mi Calm Calm - N/A   Overcast
7:55 AM 50.0 °F 50.0 °F 100% 29.80 in 4.0 mi West 3.5 mph - N/A   Overcast
8:16 AM 50.5 °F 50.5 °F 100% 29.80 in 5.0 mi Calm Calm - N/A   Overcast
8:36 AM 51.1 °F 51.1 °F 100% 29.81 in 7.0 mi Calm Calm - N/A   Overcast
8:55 AM 52.3 °F 52.3 °F 100% 29.80 in 7.0 mi West 3.5 mph - N/A   Overcast
9:16 AM 52.9 °F 52.9 °F 100% 29.80 in 7.0 mi West 3.5 mph - N/A   Overcast
9:36 AM 54.0 °F 53.8 °F 99% 29.82 in 10.0 mi West 3.5 mph - N/A   Overcast
9:55 AM 54.0 °F 54.0 °F 100% 29.83 in 10.0 mi WSW 4.6 mph - N/A   Overcast
10:16 AM 53.8 °F 53.6 °F 99% 29.83 in 10.0 mi SSW 4.6 mph - N/A   Overcast
10:35 AM 52.5 °F 52.5 °F 100% 29.83 in 7.0 mi Calm Calm - N/A   Overcast
10:56 AM 54.5 °F 54.0 °F 98% 29.84 in 10.0 mi SW 4.6 mph - N/A   Overcast
11:16 AM 55.8 °F 54.9 °F 97% 29.84 in 10.0 mi WSW 4.6 mph - N/A   Overcast
11:35 AM 54.1 °F 53.2 °F 97% 29.85 in 10.0 mi SW 5.8 mph - N/A   Overcast
11:56 AM 54.5 °F 53.2 °F 96% 29.87 in 10.0 mi WSW 6.9 mph - N/A   Overcast
12:16 PM 54.5 °F 53.2 °F 96% 29.87 in 10.0 mi WSW 5.8 mph - N/A   Overcast
12:36 PM 54.9 °F 53.6 °F 96% 29.87 in 10.0 mi SW 8.1 mph - N/A   Overcast
12:56 PM 55.0 °F 53.2 °F 94% 29.87 in 10.0 mi SW 4.6 mph - N/A   Overcast
1:16 PM 57.7 °F 54.7 °F 90% 29.89 in 10.0 mi WSW 6.9 mph - N/A   Overcast
1:36 PM 58.3 °F 54.0 °F 86% 29.89 in 10.0 mi SW 4.6 mph - N/A   Overcast
1:56 PM 59.9 °F 54.5 °F 82% 29.89 in 10.0 mi WSW 5.8 mph - N/A   Mostly Cloudy
2:16 PM 61.3 °F 54.7 °F 79% 29.90 in 10.0 mi WSW 4.6 mph - N/A   Scattered Clouds
2:36 PM 61.9 °F 54.7 °F 77% 29.89 in 10.0 mi Calm Calm - N/A   Clear
2:56 PM 63.1 °F 56.1 °F 78% 29.90 in 10.0 mi SW 10.4 mph - N/A   Scattered Clouds
3:16 PM 62.1 °F 55.2 °F 78% 29.91 in 10.0 mi WSW 10.4 mph 17.3 mph N/A   Scattered Clouds
3:35 PM 61.7 °F 55.6 °F 80% 29.92 in 10.0 mi WSW 4.6 mph - N/A   Mostly Cloudy
3:56 PM 65.3 °F 56.3 °F 73% 29.92 in 10.0 mi WSW 9.2 mph - N/A   Mostly Cloudy
4:16 PM 63.3 °F 55.8 °F 76% 29.92 in 10.0 mi WSW 8.1 mph - N/A   Scattered Clouds
4:35 PM 63.3 °F 55.6 °F 76% 29.92 in 10.0 mi SW 12.7 mph 19.6 mph N/A   Scattered Clouds
4:56 PM 63.5 °F 55.6 °F 75% 29.92 in 10.0 mi WSW 10.4 mph - N/A   Scattered Clouds
5:16 PM 61.9 °F 55.4 °F 79% 29.92 in 10.0 mi WSW 5.8 mph - N/A   Clear
5:35 PM 62.6 °F 55.6 °F 78% 29.92 in 10.0 mi WSW 6.9 mph - N/A   Scattered Clouds
5:56 PM 62.4 °F 55.6 °F 78% 29.92 in 10.0 mi SW 8.1 mph - N/A   Scattered Clouds
6:16 PM 62.2 °F 55.9 °F 80% 29.92 in 10.0 mi SW 4.6 mph - N/A   Mostly Cloudy
6:36 PM 63.1 °F 55.8 °F 77% 29.92 in 10.0 mi SW 3.5 mph - N/A   Mostly Cloudy
6:56 PM 61.2 °F 55.6 °F 82% 29.93 in 10.0 mi SW 8.1 mph - N/A   Overcast
7:16 PM 60.4 °F 55.4 °F 83% 29.93 in 10.0 mi WSW 5.8 mph - N/A   Overcast
7:36 PM 60.8 °F 55.6 °F 83% 29.93 in 10.0 mi SW 3.5 mph - N/A   Overcast
7:55 PM 60.6 °F 55.8 °F 84% 29.92 in 10.0 mi SW 3.5 mph - N/A   Overcast
8:16 PM 60.8 °F 55.9 °F 84% 29.92 in 10.0 mi Calm Calm - N/A   Overcast
8:36 PM 60.3 °F 55.8 °F 85% 29.91 in 10.0 mi Calm Calm - N/A   Mostly Cloudy
8:56 PM 58.8 °F 55.9 °F 90% 29.91 in 10.0 mi Calm Calm - N/A   Clear
9:16 PM 57.2 °F 55.8 °F 95% 29.91 in 10.0 mi Calm Calm - N/A   Mostly Cloudy
9:35 PM 58.5 °F 56.8 °F 94% 29.91 in 10.0 mi Calm Calm - N/A   Overcast
9:56 PM 57.7 °F 57.2 °F 98% 29.92 in 10.0 mi Calm Calm - N/A   Overcast
10:16 PM 58.1 °F 57.2 °F 97% 29.93 in 10.0 mi Calm Calm - N/A   Overcast
10:35 PM 58.3 °F 57.4 °F 97% 29.93 in 10.0 mi Calm Calm - N/A   Overcast
10:56 PM 58.1 °F 57.4 °F 97% 29.94 in 10.0 mi Calm Calm - N/A   Overcast
11:16 PM 57.7 °F 57.2 °F 98% 29.95 in 10.0 mi Calm Calm - N/A   Overcast
11:35 PM 56.8 °F 55.9 °F 97% 29.95 in 10.0 mi South 4.6 mph - N/A   Overcast
11:56 PM 50.9 °F 50.0 °F 97% 29.95 in 10.0 mi SSE 4.6 mph - N/A   Overcast